Back to catalog

DELTA 1 DEB

AliveSSO
NORAD 21450·DEBRIS·🇺🇸 United States

Launched Jun 12, 1975 from Vandenberg Space Force Base

Loading…

Next Passes (next 24 hours)

TLE

FreshSource: Space-Track

Epoch: Sep 14, 2026, 04:35 UTC

1 21450U 75052EJ  26257.19107750  .00000116  00000-0  31012-3 0  9991
2 21450  99.8346 140.0613 0060277  38.6731 112.8857 13.35416337721297

Track DELTA 1 DEB in real time with AllMySat

Download on the App Store